Time,TemperatureF,DewpointF,PressureIn,WindDirection,WindDirectionDegrees,WindSpeedMPH,WindSpeedGustMPH,Humidity,HourlyPrecipIn,Conditions,Clouds,dailyrainin,SoftwareType,DateUTC
2013-04-11 00:00:00,74.1,69.0,29.97,SE,134,8.0,9.0,84,0.00,,,0.00,VWS V14.01,2013-04-11 04:00:00,
2013-04-11 00:05:00,74.0,68.9,29.97,SE,138,4.0,5.0,84,0.00,,,0.00,VWS V14.01,2013-04-11 04:05:00,
2013-04-11 00:10:00,73.8,68.7,29.97,ESE,123,11.0,12.0,84,0.00,,,0.00,VWS V14.01,2013-04-11 04:10:00,
2013-04-11 00:15:00,73.7,68.9,29.97,SE,141,7.0,8.0,85,0.00,,,0.00,VWS V14.01,2013-04-11 04:15:00,
2013-04-11 00:20:00,73.7,68.9,29.97,SE,132,7.0,12.0,85,0.00,,,0.00,VWS V14.01,2013-04-11 04:20:00,
2013-04-11 00:25:00,73.6,68.8,29.97,SE,134,6.0,8.0,85,0.00,,,0.00,VWS V14.01,2013-04-11 04:25:00,
2013-04-11 00:30:00,73.5,68.7,29.96,SE,130,7.0,11.0,85,0.00,,,0.00,VWS V14.01,2013-04-11 04:30:00,
2013-04-11 00:35:00,73.4,69.0,29.96,SE,146,5.0,9.0,86,0.00,,,0.00,VWS V14.01,2013-04-11 04:35:00,
2013-04-11 00:40:00,73.4,69.0,29.96,SSE,165,7.0,11.0,86,0.00,,,0.00,VWS V14.01,2013-04-11 04:40:00,
2013-04-11 00:45:00,73.5,69.1,29.96,SSE,161,5.0,9.0,86,0.00,,,0.00,VWS V14.01,2013-04-11 04:45:00,
2013-04-11 00:50:00,73.5,69.1,29.96,SSE,158,6.0,17.0,86,0.00,,,0.00,VWS V14.01,2013-04-11 04:50:00,
2013-04-11 00:55:00,73.2,69.4,29.96,SE,146,8.0,8.0,88,0.00,,,0.00,VWS V14.01,2013-04-11 04:55:00,
2013-04-11 01:00:00,72.7,69.3,29.96,South,176,5.0,9.0,89,0.00,,,0.00,VWS V14.01,2013-04-11 05:00:00,
2013-04-11 01:05:00,72.4,69.3,29.95,SSE,161,4.0,6.0,90,0.00,,,0.00,VWS V14.01,2013-04-11 05:05:00,
2013-04-11 01:10:00,72.2,69.4,29.95,SE,132,4.0,8.0,91,0.00,,,0.00,VWS V14.01,2013-04-11 05:10:00,
2013-04-11 01:15:00,72.1,69.3,29.95,SSE,154,5.0,6.0,91,0.00,,,0.00,VWS V14.01,2013-04-11 05:15:00,
2013-04-11 01:20:00,72.0,69.2,29.95,SSE,150,2.0,7.0,91,0.00,,,0.00,VWS V14.01,2013-04-11 05:20:00,
2013-04-11 01:25:00,72.0,69.6,29.95,SE,143,4.0,6.0,92,0.00,,,0.00,VWS V14.01,2013-04-11 05:25:00,
2013-04-11 01:30:00,72.1,69.7,29.95,SSE,163,7.0,12.0,92,0.00,,,0.00,VWS V14.01,2013-04-11 05:30:00,
2013-04-11 01:35:00,72.2,69.4,29.95,SSE,161,5.0,6.0,91,0.00,,,0.00,VWS V14.01,2013-04-11 05:35:00,
2013-04-11 01:40:00,72.2,69.4,29.95,SE,128,6.0,10.0,91,0.00,,,0.00,VWS V14.01,2013-04-11 05:40:00,
2013-04-11 01:45:00,72.3,69.5,29.94,SSE,148,5.0,9.0,91,0.00,,,0.00,VWS V14.01,2013-04-11 05:45:00,
2013-04-11 01:50:00,72.3,69.5,29.94,SSE,150,5.0,9.0,91,0.00,,,0.00,VWS V14.01,2013-04-11 05:50:00,
2013-04-11 01:55:00,72.4,69.6,29.94,SSE,157,5.0,6.0,91,0.00,,,0.00,VWS V14.01,2013-04-11 05:55:00,
2013-04-11 02:00:00,72.4,69.6,29.94,SSE,150,7.0,11.0,91,0.00,,,0.00,VWS V14.01,2013-04-11 06:00:00,
2013-04-11 02:05:00,72.5,69.7,29.94,South,169,4.0,6.0,91,0.00,,,0.00,VWS V14.01,2013-04-11 06:05:00,
2013-04-11 02:10:00,72.5,69.7,29.94,SE,134,5.0,9.0,91,0.00,,,0.00,VWS V14.01,2013-04-11 06:10:00,
2013-04-11 02:15:00,72.5,69.7,29.93,SSE,159,6.0,8.0,91,0.00,,,0.00,VWS V14.01,2013-04-11 06:15:00,
2013-04-11 02:20:00,72.6,69.8,29.93,SE,134,5.0,9.0,91,0.00,,,0.00,VWS V14.01,2013-04-11 06:20:00,
2013-04-11 02:25:00,72.7,69.9,29.93,SE,142,5.0,6.0,91,0.00,,,0.00,VWS V14.01,2013-04-11 06:25:00,
2013-04-11 02:30:00,72.7,69.9,29.92,SSE,148,5.0,8.0,91,0.00,,,0.00,VWS V14.01,2013-04-11 06:30:00,
2013-04-11 02:35:00,72.6,69.8,29.92,SSE,148,4.0,5.0,91,0.00,,,0.00,VWS V14.01,2013-04-11 06:35:00,
2013-04-11 02:40:00,72.6,69.8,29.92,SSE,148,5.0,9.0,91,0.00,,,0.00,VWS V14.01,2013-04-11 06:40:00,
2013-04-11 02:45:00,72.6,69.8,29.92,ESE,117,5.0,9.0,91,0.00,,,0.00,VWS V14.01,2013-04-11 06:45:00,
2013-04-11 02:50:00,72.6,69.8,29.92,SSE,147,5.0,12.0,91,0.00,,,0.00,VWS V14.01,2013-04-11 06:50:00,
2013-04-11 02:55:00,72.6,69.8,29.91,SE,133,8.0,8.0,91,0.00,,,0.00,VWS V14.01,2013-04-11 06:55:00,
2013-04-11 03:00:00,72.6,69.8,29.91,SE,136,4.0,10.0,91,0.00,,,0.00,VWS V14.01,2013-04-11 07:00:00,
2013-04-11 03:05:00,72.4,69.6,29.91,SSE,150,9.0,9.0,91,0.00,,,0.00,VWS V14.01,2013-04-11 07:05:00,
2013-04-11 03:10:00,72.4,69.6,29.92,SSE,150,5.0,9.0,91,0.00,,,0.00,VWS V14.01,2013-04-11 07:10:00,
2013-04-11 03:15:00,72.3,69.5,29.91,SSE,150,8.0,8.0,91,0.00,,,0.00,VWS V14.01,2013-04-11 07:15:00,
2013-04-11 03:20:00,72.2,69.8,29.92,SSE,165,6.0,9.0,92,0.00,,,0.00,VWS V14.01,2013-04-11 07:20:00,
2013-04-11 03:30:00,72.2,69.8,29.91,SSE,158,5.0,10.0,92,0.00,,,0.00,VWS V14.01,2013-04-11 07:30:00,
2013-04-11 03:40:00,72.2,69.8,29.91,SSE,158,6.0,10.0,92,0.00,,,0.00,VWS V14.01,2013-04-11 07:40:00,
2013-04-11 03:50:00,72.1,69.7,29.91,SSE,158,4.0,9.0,92,0.00,,,0.00,VWS V14.01,2013-04-11 07:50:00,
2013-04-11 04:00:00,72.0,69.6,29.91,SSE,158,4.0,8.0,92,0.00,,,0.00,VWS V14.01,2013-04-11 08:00:00,
2013-04-11 04:10:00,71.9,69.4,29.91,SSE,158,4.0,7.0,92,0.00,,,0.00,VWS V14.01,2013-04-11 08:10:00,
2013-04-11 04:20:00,71.9,69.4,29.91,SE,135,5.0,9.0,92,0.00,,,0.00,VWS V14.01,2013-04-11 08:20:00,
2013-04-11 04:30:00,71.8,69.3,29.91,SE,135,4.0,10.0,92,0.00,,,0.00,VWS V14.01,2013-04-11 08:30:00,
2013-04-11 04:40:00,71.7,69.6,29.91,SSE,158,5.0,10.0,93,0.00,,,0.00,VWS V14.01,2013-04-11 08:40:00,
2013-04-11 04:50:00,71.6,69.5,29.92,SSE,158,5.0,11.0,93,0.00,,,0.00,VWS V14.01,2013-04-11 08:50:00,
2013-04-11 05:00:00,71.7,69.6,29.92,SSE,158,5.0,11.0,93,0.00,,,0.00,VWS V14.01,2013-04-11 09:00:00,
2013-04-11 05:10:00,71.9,69.8,29.92,SSE,158,5.0,9.0,93,0.00,,,0.00,VWS V14.01,2013-04-11 09:10:00,
2013-04-11 05:20:00,72.1,70.0,29.92,SE,135,7.0,13.0,93,0.00,,,0.00,VWS V14.01,2013-04-11 09:20:00,
2013-04-11 05:30:00,72.0,69.6,29.91,SE,135,6.0,9.0,92,0.00,,,0.00,VWS V14.01,2013-04-11 09:30:00,
2013-04-11 05:40:00,72.0,69.6,29.92,SE,135,7.0,12.0,92,0.00,,,0.00,VWS V14.01,2013-04-11 09:40:00,
2013-04-11 05:50:00,72.0,69.6,29.92,SSE,158,6.0,11.0,92,0.00,,,0.00,VWS V14.01,2013-04-11 09:50:00,
2013-04-11 06:00:00,71.9,69.4,29.92,SE,135,7.0,12.0,92,0.00,,,0.00,VWS V14.01,2013-04-11 10:00:00,
2013-04-11 06:10:00,71.8,69.3,29.92,SE,135,6.0,12.0,92,0.00,,,0.00,VWS V14.01,2013-04-11 10:10:00,
2013-04-11 06:20:00,71.6,69.5,29.92,SE,135,6.0,11.0,93,0.00,,,0.00,VWS V14.01,2013-04-11 10:20:00,
2013-04-11 06:30:00,71.5,69.4,29.92,SSE,158,6.0,10.0,93,0.00,,,0.00,VWS V14.01,2013-04-11 10:30:00,
2013-04-11 06:40:00,71.4,69.3,29.92,SE,135,7.0,11.0,93,0.00,,,0.00,VWS V14.01,2013-04-11 10:40:00,
2013-04-11 06:50:00,71.2,69.1,29.91,SE,135,6.0,12.0,93,0.00,,,0.00,VWS V14.01,2013-04-11 10:50:00,
2013-04-11 07:00:00,71.1,69.3,29.92,SE,135,7.0,12.0,94,0.00,,,0.00,VWS V14.01,2013-04-11 11:00:00,
2013-04-11 07:10:00,71.0,69.2,29.92,SE,135,6.0,11.0,94,0.00,,,0.00,VWS V14.01,2013-04-11 11:10:00,
2013-04-11 07:20:00,71.0,69.2,29.92,SE,135,7.0,11.0,94,0.00,,,0.00,VWS V14.01,2013-04-11 11:20:00,
2013-04-11 07:35:00,71.0,69.2,29.92,SE,135,7.0,11.0,94,0.00,,,0.00,VWS V14.01,2013-04-11 11:35:00,
2013-04-11 07:40:00,71.2,69.4,29.93,SSE,155,5.0,9.0,94,0.00,,,0.00,VWS V14.01,2013-04-11 11:40:00,
2013-04-11 07:45:00,71.2,69.4,29.93,SSE,149,7.0,11.0,94,0.00,,,0.00,VWS V14.01,2013-04-11 11:45:00,
2013-04-11 07:50:00,71.3,69.5,29.93,SE,131,4.0,11.0,94,0.00,,,0.00,VWS V14.01,2013-04-11 11:50:00,
2013-04-11 07:55:00,71.4,69.6,29.93,SE,142,5.0,8.0,94,0.00,,,0.00,VWS V14.01,2013-04-11 11:55:00,
2013-04-11 08:00:00,71.5,69.7,29.94,SSE,155,4.0,13.0,94,0.00,,,0.00,VWS V14.01,2013-04-11 12:00:00,
2013-04-11 08:05:00,71.7,69.6,29.94,SE,139,9.0,11.0,93,0.00,,,0.00,VWS V14.01,2013-04-11 12:05:00,
2013-04-11 08:10:00,71.9,69.8,29.94,SSE,149,8.0,13.0,93,0.00,,,0.00,VWS V14.01,2013-04-11 12:10:00,
2013-04-11 08:15:00,71.9,69.8,29.94,SE,146,6.0,11.0,93,0.00,,,0.00,VWS V14.01,2013-04-11 12:15:00,
2013-04-11 08:20:00,72.1,70.0,29.94,SE,140,5.0,11.0,93,0.00,,,0.00,VWS V14.01,2013-04-11 12:20:00,
2013-04-11 08:25:00,72.3,69.8,29.94,SE,142,7.0,9.0,92,0.00,,,0.00,VWS V14.01,2013-04-11 12:25:00,
2013-04-11 08:30:00,72.6,70.2,29.94,SE,143,6.0,13.0,92,0.00,,,0.00,VWS V14.01,2013-04-11 12:30:00,
2013-04-11 08:35:00,72.9,70.1,29.94,SE,146,13.0,13.0,91,0.00,,,0.00,VWS V14.01,2013-04-11 12:35:00,
2013-04-11 08:40:00,73.2,70.4,29.94,SSE,150,13.0,16.0,91,0.00,,,0.00,VWS V14.01,2013-04-11 12:40:00,
2013-04-11 08:45:00,73.3,70.2,29.94,SE,124,7.0,10.0,90,0.00,,,0.00,VWS V14.01,2013-04-11 12:45:00,
2013-04-11 08:50:00,73.7,70.6,29.94,SSE,151,4.0,14.0,90,0.00,,,0.00,VWS V14.01,2013-04-11 12:50:00,
2013-04-11 08:55:00,74.0,70.6,29.94,SSE,147,12.0,14.0,89,0.00,,,0.00,VWS V14.01,2013-04-11 12:55:00,
2013-04-11 09:00:00,74.2,70.8,29.94,SSE,148,8.0,15.0,89,0.00,,,0.00,VWS V14.01,2013-04-11 13:00:00,
2013-04-11 09:05:00,74.9,71.1,29.94,SSE,165,7.0,13.0,88,0.00,,,0.00,VWS V14.01,2013-04-11 13:05:00,
2013-04-11 09:10:00,75.5,71.0,29.94,SE,135,9.0,18.0,86,0.00,,,0.00,VWS V14.01,2013-04-11 13:10:00,
2013-04-11 09:15:00,75.7,71.2,29.94,SSE,157,10.0,14.0,86,0.00,,,0.00,VWS V14.01,2013-04-11 13:15:00,
2013-04-11 09:20:00,75.8,71.3,29.94,ESE,116,5.0,15.0,86,0.00,,,0.00,VWS V14.01,2013-04-11 13:20:00,
2013-04-11 09:25:00,76.1,71.3,29.94,SSE,167,6.0,11.0,85,0.00,,,0.00,VWS V14.01,2013-04-11 13:25:00,
2013-04-11 09:30:00,76.5,72.0,29.94,SE,131,5.0,12.0,86,0.00,,,0.00,VWS V14.01,2013-04-11 13:30:00,
2013-04-11 09:35:00,76.7,70.8,29.94,SSE,161,8.0,15.0,82,0.00,,,0.00,VWS V14.01,2013-04-11 13:35:00,
2013-04-11 09:40:00,76.7,71.2,29.95,SSE,153,8.0,15.0,83,0.00,,,0.00,VWS V14.01,2013-04-11 13:40:00,
2013-04-11 09:45:00,77.6,70.9,29.95,ESE,121,15.0,21.0,80,0.00,,,0.00,VWS V14.01,2013-04-11 13:45:00,
2013-04-11 09:50:00,77.7,71.0,29.95,SE,132,8.0,21.0,80,0.00,,,0.00,VWS V14.01,2013-04-11 13:50:00,
2013-04-11 09:55:00,77.3,70.7,29.95,SSE,168,11.0,15.0,80,0.00,,,0.00,VWS V14.01,2013-04-11 13:55:00,
2013-04-11 10:00:00,76.9,70.3,29.95,SSE,156,14.0,18.0,80,0.00,,,0.00,VWS V14.01,2013-04-11 14:00:00,
2013-04-11 10:05:00,77.3,71.0,29.95,SE,134,9.0,15.0,81,0.00,,,0.00,VWS V14.01,2013-04-11 14:05:00,
2013-04-11 10:10:00,77.7,70.7,29.96,SE,132,9.0,20.0,79,0.00,,,0.00,VWS V14.01,2013-04-11 14:10:00,
2013-04-11 10:15:00,78.2,71.2,29.96,SSW,192,5.0,10.0,79,0.00,,,0.00,VWS V14.01,2013-04-11 14:15:00,
2013-04-11 10:20:00,79.2,71.0,29.96,SSE,149,15.0,18.0,76,0.00,,,0.00,VWS V14.01,2013-04-11 14:20:00,
2013-04-11 10:25:00,79.3,71.1,29.96,South,169,12.0,15.0,76,0.00,,,0.00,VWS V14.01,2013-04-11 14:25:00,
2013-04-11 10:30:00,79.9,71.7,29.96,SSE,159,13.0,20.0,76,0.00,,,0.00,VWS V14.01,2013-04-11 14:30:00,
2013-04-11 10:35:00,79.5,70.9,29.96,SSE,150,9.0,18.0,75,0.00,,,0.00,VWS V14.01,2013-04-11 14:35:00,
2013-04-11 10:40:00,79.4,70.8,29.96,SSE,159,11.0,18.0,75,0.00,,,0.00,VWS V14.01,2013-04-11 14:40:00,
2013-04-11 10:45:00,79.8,70.8,29.96,SSE,149,13.0,13.0,74,0.00,,,0.00,VWS V14.01,2013-04-11 14:45:00,
2013-04-11 10:50:00,80.2,71.2,29.95,SSE,159,10.0,20.0,74,0.00,,,0.00,VWS V14.01,2013-04-11 14:50:00,
2013-04-11 10:55:00,80.9,71.4,29.95,SSE,160,8.0,14.0,73,0.00,,,0.00,VWS V14.01,2013-04-11 14:55:00,
2013-04-11 11:00:00,81.6,71.3,29.95,SSE,152,7.0,16.0,71,0.00,,,0.00,VWS V14.01,2013-04-11 15:00:00,
2013-04-11 11:05:00,81.3,71.0,29.95,SE,146,11.0,22.0,71,0.00,,,0.00,VWS V14.01,2013-04-11 15:05:00,
2013-04-11 11:10:00,81.0,70.7,29.95,SE,146,8.0,22.0,71,0.00,,,0.00,VWS V14.01,2013-04-11 15:10:00,
2013-04-11 11:15:00,81.1,70.8,29.95,SSE,168,10.0,15.0,71,0.00,,,0.00,VWS V14.01,2013-04-11 15:15:00,
2013-04-11 11:20:00,81.2,70.9,29.94,SE,144,7.0,17.0,71,0.00,,,0.00,VWS V14.01,2013-04-11 15:20:00,
2013-04-11 11:25:00,81.5,70.8,29.95,SSE,153,8.0,18.0,70,0.00,,,0.00,VWS V14.01,2013-04-11 15:25:00,
2013-04-11 11:30:00,82.4,69.9,29.94,South,178,11.0,19.0,66,0.00,,,0.00,VWS V14.01,2013-04-11 15:30:00,
2013-04-11 11:35:00,82.9,70.8,29.94,SSW,192,8.0,15.0,67,0.00,,,0.00,VWS V14.01,2013-04-11 15:35:00,
2013-04-11 11:40:00,82.8,70.3,29.94,SSE,153,10.0,19.0,66,0.00,,,0.00,VWS V14.01,2013-04-11 15:40:00,
2013-04-11 11:45:00,82.8,70.7,29.94,SSE,152,10.0,11.0,67,0.00,,,0.00,VWS V14.01,2013-04-11 15:45:00,
2013-04-11 11:50:00,82.9,71.7,29.94,SSE,159,15.0,15.0,69,0.00,,,0.00,VWS V14.01,2013-04-11 15:50:00,
2013-04-11 11:55:00,83.7,71.6,29.94,SSE,154,8.0,12.0,67,0.00,,,0.00,VWS V14.01,2013-04-11 15:55:00,
2013-04-11 12:00:00,83.6,71.1,29.94,SE,143,13.0,23.0,66,0.00,,,0.00,VWS V14.01,2013-04-11 16:00:00,
2013-04-11 12:05:00,83.1,70.1,29.93,SSW,200,8.0,14.0,65,0.00,,,0.00,VWS V14.01,2013-04-11 16:05:00,
2013-04-11 12:10:00,83.2,70.2,29.93,SE,126,5.0,17.0,65,0.00,,,0.00,VWS V14.01,2013-04-11 16:10:00,
2013-04-11 12:15:00,83.4,69.9,29.93,SE,128,14.0,19.0,64,0.00,,,0.00,VWS V14.01,2013-04-11 16:15:00,
2013-04-11 12:20:00,83.4,70.4,29.93,South,182,6.0,19.0,65,0.00,,,0.00,VWS V14.01,2013-04-11 16:20:00,
2013-04-11 12:25:00,83.7,70.2,29.93,SE,139,6.0,12.0,64,0.00,,,0.00,VWS V14.01,2013-04-11 16:25:00,
2013-04-11 12:30:00,82.7,70.2,29.93,SSE,157,7.0,13.0,66,0.00,,,0.00,VWS V14.01,2013-04-11 16:30:00,
2013-04-11 12:35:00,83.4,71.7,29.92,SSE,152,5.0,16.0,68,0.00,,,0.00,VWS V14.01,2013-04-11 16:35:00,
2013-04-11 12:40:00,84.2,70.7,29.92,SSE,153,12.0,19.0,64,0.00,,,0.00,VWS V14.01,2013-04-11 16:40:00,
2013-04-11 12:45:00,83.6,69.7,29.92,SE,132,7.0,18.0,63,0.00,,,0.00,VWS V14.01,2013-04-11 16:45:00,
2013-04-11 12:50:00,84.8,70.3,29.92,SSE,157,9.0,20.0,62,0.00,,,0.00,VWS V14.01,2013-04-11 16:50:00,
2013-04-11 12:55:00,84.3,71.3,29.91,SSW,196,6.0,7.0,65,0.00,,,0.00,VWS V14.01,2013-04-11 16:55:00,
2013-04-11 13:00:00,85.0,70.5,29.91,SSE,148,9.0,16.0,62,0.00,,,0.00,VWS V14.01,2013-04-11 17:00:00,
2013-04-11 13:05:00,86.2,71.2,29.91,South,169,2.0,12.0,61,0.00,,,0.00,VWS V14.01,2013-04-11 17:05:00,
2013-04-11 13:10:00,85.8,70.3,29.91,SSE,166,6.0,12.0,60,0.00,,,0.00,VWS V14.01,2013-04-11 17:10:00,
2013-04-11 13:15:00,85.2,70.2,29.91,SE,144,9.0,14.0,61,0.00,,,0.00,VWS V14.01,2013-04-11 17:15:00,
2013-04-11 13:20:00,84.4,70.0,29.90,SSE,159,10.0,19.0,62,0.00,,,0.00,VWS V14.01,2013-04-11 17:20:00,
2013-04-11 13:25:00,84.3,70.3,29.90,South,169,6.0,13.0,63,0.00,,,0.00,VWS V14.01,2013-04-11 17:25:00,
2013-04-11 13:30:00,84.7,69.8,29.90,SSE,162,8.0,20.0,61,0.00,,,0.00,VWS V14.01,2013-04-11 17:30:00,
2013-04-11 13:35:00,85.5,71.0,29.90,SE,144,10.0,12.0,62,0.00,,,0.00,VWS V14.01,2013-04-11 17:35:00,
2013-04-11 13:40:00,85.6,69.6,29.89,SE,141,8.0,18.0,59,0.00,,,0.00,VWS V14.01,2013-04-11 17:40:00,
2013-04-11 13:45:00,85.6,69.6,29.89,SE,131,14.0,18.0,59,0.00,,,0.00,VWS V14.01,2013-04-11 17:45:00,
2013-04-11 13:50:00,85.9,69.4,29.89,South,175,11.0,19.0,58,0.00,,,0.00,VWS V14.01,2013-04-11 17:50:00,
2013-04-11 13:55:00,86.0,70.0,29.89,SSE,155,9.0,11.0,59,0.00,,,0.00,VWS V14.01,2013-04-11 17:55:00,
2013-04-11 14:00:00,85.3,69.4,29.89,SSW,203,5.0,15.0,59,0.00,,,0.00,VWS V14.01,2013-04-11 18:00:00,
2013-04-11 14:05:00,85.4,69.9,29.89,SSE,149,7.0,12.0,60,0.00,,,0.00,VWS V14.01,2013-04-11 18:05:00,
2013-04-11 14:10:00,85.3,70.3,29.89,SSE,150,8.0,15.0,61,0.00,,,0.00,VWS V14.01,2013-04-11 18:10:00,
2013-04-11 14:15:00,86.1,70.6,29.88,South,180,6.0,12.0,60,0.00,,,0.00,VWS V14.01,2013-04-11 18:15:00,
2013-04-11 14:20:00,87.3,70.2,29.88,SW,219,6.0,12.0,57,0.00,,,0.00,VWS V14.01,2013-04-11 18:20:00,
2013-04-11 14:25:00,87.9,70.8,29.88,South,190,6.0,12.0,57,0.00,,,0.00,VWS V14.01,2013-04-11 18:25:00,
2013-04-11 14:30:00,87.8,69.6,29.88,SSE,156,11.0,13.0,55,0.00,,,0.00,VWS V14.01,2013-04-11 18:30:00,
2013-04-11 14:35:00,87.2,68.5,29.88,SSE,150,9.0,12.0,54,0.00,,,0.00,VWS V14.01,2013-04-11 18:35:00,
2013-04-11 14:40:00,86.4,68.9,29.87,SSE,150,7.0,14.0,56,0.00,,,0.00,VWS V14.01,2013-04-11 18:40:00,
2013-04-11 14:45:00,86.3,69.3,29.87,SE,126,6.0,8.0,57,0.00,,,0.00,VWS V14.01,2013-04-11 18:45:00,
2013-04-11 14:50:00,86.4,69.4,29.87,SSE,163,7.0,13.0,57,0.00,,,0.00,VWS V14.01,2013-04-11 18:50:00,
2013-04-11 14:55:00,86.1,69.1,29.87,SE,140,5.0,12.0,57,0.00,,,0.00,VWS V14.01,2013-04-11 18:55:00,
2013-04-11 15:00:00,86.0,68.5,29.86,South,190,9.0,13.0,56,0.00,,,0.00,VWS V14.01,2013-04-11 19:00:00,
2013-04-11 15:05:00,85.8,68.8,29.86,SSE,159,2.0,8.0,57,0.00,,,0.00,VWS V14.01,2013-04-11 19:05:00,
2013-04-11 15:10:00,86.7,69.7,29.86,SSE,151,8.0,14.0,57,0.00,,,0.00,VWS V14.01,2013-04-11 19:10:00,
2013-04-11 15:15:00,87.8,69.6,29.86,SSE,151,7.0,12.0,55,0.00,,,0.00,VWS V14.01,2013-04-11 19:15:00,
2013-04-11 15:20:00,86.8,68.7,29.86,South,170,7.0,13.0,55,0.00,,,0.00,VWS V14.01,2013-04-11 19:20:00,
2013-04-11 15:25:00,86.3,68.8,29.85,SSE,163,8.0,9.0,56,0.00,,,0.00,VWS V14.01,2013-04-11 19:25:00,
2013-04-11 15:30:00,86.4,69.4,29.85,South,169,10.0,13.0,57,0.00,,,0.00,VWS V14.01,2013-04-11 19:30:00,
2013-04-11 15:35:00,86.6,69.1,29.85,South,190,8.0,13.0,56,0.00,,,0.00,VWS V14.01,2013-04-11 19:35:00,
2013-04-11 15:40:00,86.3,68.8,29.85,SE,138,11.0,13.0,56,0.00,,,0.00,VWS V14.01,2013-04-11 19:40:00,
2013-04-11 15:45:00,86.3,69.3,29.84,SE,128,7.0,10.0,57,0.00,,,0.00,VWS V14.01,2013-04-11 19:45:00,
2013-04-11 15:50:00,87.6,70.0,29.84,SE,139,10.0,10.0,56,0.00,,,0.00,VWS V14.01,2013-04-11 19:50:00,
2013-04-11 15:55:00,87.8,71.2,29.84,SSE,155,7.0,9.0,58,0.00,,,0.00,VWS V14.01,2013-04-11 19:55:00,
2013-04-11 16:00:00,88.5,70.8,29.83,SSE,161,2.0,10.0,56,0.00,,,0.00,VWS V14.01,2013-04-11 20:00:00,
2013-04-11 16:05:00,89.8,70.9,29.83,SW,230,1.0,4.0,54,0.00,,,0.00,VWS V14.01,2013-04-11 20:05:00,
2013-04-11 16:10:00,89.6,69.7,29.83,South,176,6.0,12.0,52,0.00,,,0.00,VWS V14.01,2013-04-11 20:10:00,
2013-04-11 16:15:00,88.9,70.7,29.83,SE,139,7.0,12.0,55,0.00,,,0.00,VWS V14.01,2013-04-11 20:15:00,
2013-04-11 16:20:00,87.5,68.3,29.82,SSE,149,8.0,17.0,53,0.00,,,0.00,VWS V14.01,2013-04-11 20:20:00,
2013-04-11 16:25:00,86.4,68.3,29.82,SSE,154,9.0,15.0,55,0.00,,,0.00,VWS V14.01,2013-04-11 20:25:00,
2013-04-11 16:30:00,86.4,68.9,29.82,SSE,148,13.0,17.0,56,0.00,,,0.00,VWS V14.01,2013-04-11 20:30:00,
2013-04-11 16:35:00,87.1,68.4,29.81,SSE,154,14.0,19.0,54,0.00,,,0.00,VWS V14.01,2013-04-11 20:35:00,
2013-04-11 16:40:00,87.2,69.1,29.81,ESE,119,15.0,19.0,55,0.00,,,0.00,VWS V14.01,2013-04-11 20:40:00,
2013-04-11 16:45:00,87.4,68.2,29.81,ESE,122,13.0,17.0,53,0.00,,,0.00,VWS V14.01,2013-04-11 20:45:00,
2013-04-11 16:50:00,87.4,70.3,29.82,SE,145,11.0,17.0,57,0.00,,,0.00,VWS V14.01,2013-04-11 20:50:00,
2013-04-11 16:55:00,87.4,68.7,29.81,SE,136,9.0,12.0,54,0.00,,,0.00,VWS V14.01,2013-04-11 20:55:00,
2013-04-11 17:00:00,87.7,69.0,29.81,South,186,7.0,16.0,54,0.00,,,0.00,VWS V14.01,2013-04-11 21:00:00,
2013-04-11 17:05:00,87.4,69.3,29.81,South,184,6.0,13.0,55,0.00,,,0.00,VWS V14.01,2013-04-11 21:05:00,
2013-04-11 17:10:00,86.7,69.1,29.81,South,179,4.0,13.0,56,0.00,,,0.00,VWS V14.01,2013-04-11 21:10:00,
2013-04-11 17:15:00,87.3,69.7,29.81,SSE,149,10.0,12.0,56,0.00,,,0.00,VWS V14.01,2013-04-11 21:15:00,
2013-04-11 17:20:00,87.0,68.9,29.81,SSE,161,11.0,13.0,55,0.00,,,0.00,VWS V14.01,2013-04-11 21:20:00,
2013-04-11 17:25:00,86.3,69.8,29.81,SSW,194,5.0,5.0,58,0.00,,,0.00,VWS V14.01,2013-04-11 21:25:00,
2013-04-11 17:30:00,86.1,69.1,29.81,SSE,160,10.0,15.0,57,0.00,,,0.00,VWS V14.01,2013-04-11 21:30:00,
2013-04-11 17:35:00,85.7,69.2,29.80,SSE,148,8.0,11.0,58,0.00,,,0.00,VWS V14.01,2013-04-11 21:35:00,
2013-04-11 17:40:00,85.4,69.9,29.80,SSW,192,4.0,12.0,60,0.00,,,0.00,VWS V14.01,2013-04-11 21:40:00,
2013-04-11 17:45:00,85.4,69.4,29.80,SSE,148,7.0,9.0,59,0.00,,,0.00,VWS V14.01,2013-04-11 21:45:00,
2013-04-11 17:50:00,85.6,69.1,29.80,SSE,164,5.0,11.0,58,0.00,,,0.00,VWS V14.01,2013-04-11 21:50:00,
2013-04-11 17:55:00,85.7,69.2,29.79,SSE,157,7.0,12.0,58,0.00,,,0.00,VWS V14.01,2013-04-11 21:55:00,
2013-04-11 18:00:00,85.7,69.2,29.80,South,172,6.0,17.0,58,0.00,,,0.00,VWS V14.01,2013-04-11 22:00:00,
2013-04-11 18:05:00,85.7,69.7,29.79,SE,143,4.0,8.0,59,0.00,,,0.00,VWS V14.01,2013-04-11 22:05:00,
2013-04-11 18:10:00,85.6,69.6,29.79,SSE,155,5.0,11.0,59,0.00,,,0.00,VWS V14.01,2013-04-11 22:10:00,
2013-04-11 18:15:00,85.5,69.1,29.80,South,171,10.0,15.0,58,0.00,,,0.00,VWS V14.01,2013-04-11 22:15:00,
2013-04-11 18:20:00,85.2,69.3,29.80,SSE,159,7.0,15.0,59,0.00,,,0.00,VWS V14.01,2013-04-11 22:20:00,
2013-04-11 18:25:00,85.0,69.6,29.79,SSE,150,7.0,9.0,60,0.00,,,0.00,VWS V14.01,2013-04-11 22:25:00,
2013-04-11 18:30:00,84.8,69.4,29.80,South,186,8.0,14.0,60,0.00,,,0.00,VWS V14.01,2013-04-11 22:30:00,
2013-04-11 18:35:00,84.5,69.1,29.80,SE,140,5.0,8.0,60,0.00,,,0.00,VWS V14.01,2013-04-11 22:35:00,
2013-04-11 18:40:00,84.2,69.3,29.80,SSE,148,7.0,13.0,61,0.00,,,0.00,VWS V14.01,2013-04-11 22:40:00,
2013-04-11 18:45:00,83.9,69.5,29.80,SSE,163,4.0,8.0,62,0.00,,,0.00,VWS V14.01,2013-04-11 22:45:00,
2013-04-11 18:50:00,83.4,70.9,29.81,SW,217,6.0,11.0,66,0.00,,,0.00,VWS V14.01,2013-04-11 22:50:00,
2013-04-11 18:55:00,81.5,71.6,29.81,SSW,198,2.0,4.0,72,0.01,,,0.01,VWS V14.01,2013-04-11 22:55:00,
2013-04-11 19:00:00,80.2,71.6,29.80,SSW,198,0.0,4.0,75,0.01,,,0.01,VWS V14.01,2013-04-11 23:00:00,
2013-04-11 19:05:00,79.3,72.2,29.81,SSE,155,5.0,7.0,79,0.01,,,0.01,VWS V14.01,2013-04-11 23:05:00,
2013-04-11 19:10:00,78.7,71.3,29.81,SSE,151,4.0,9.0,78,0.01,,,0.01,VWS V14.01,2013-04-11 23:10:00,
2013-04-11 19:15:00,78.7,71.6,29.81,South,184,6.0,10.0,79,0.01,,,0.01,VWS V14.01,2013-04-11 23:15:00,
2013-04-11 19:20:00,78.7,71.6,29.81,SSE,162,14.0,14.0,79,0.01,,,0.01,VWS V14.01,2013-04-11 23:20:00,
2013-04-11 19:25:00,78.5,71.4,29.81,SE,146,5.0,8.0,79,0.01,,,0.01,VWS V14.01,2013-04-11 23:25:00,
2013-04-11 19:30:00,78.0,71.3,29.82,SSE,160,11.0,13.0,80,0.01,,,0.01,VWS V14.01,2013-04-11 23:30:00,
2013-04-11 19:35:00,77.4,70.8,29.82,SE,124,9.0,11.0,80,0.01,,,0.01,VWS V14.01,2013-04-11 23:35:00,
2013-04-11 19:40:00,76.9,70.6,29.82,SSE,150,8.0,13.0,81,0.01,,,0.01,VWS V14.01,2013-04-11 23:40:00,
2013-04-11 19:45:00,76.6,71.1,29.82,SSW,209,7.0,7.0,83,0.01,,,0.01,VWS V14.01,2013-04-11 23:45:00,
2013-04-11 19:50:00,76.3,70.8,29.82,SSE,160,4.0,11.0,83,0.01,,,0.01,VWS V14.01,2013-04-11 23:50:00,
2013-04-11 19:55:00,76.1,70.6,29.82,SSE,162,4.0,6.0,83,0.00,,,0.01,VWS V14.01,2013-04-11 23:55:00,
2013-04-11 20:00:00,76.1,70.9,29.82,SSE,159,5.0,8.0,84,0.00,,,0.01,VWS V14.01,2013-04-12 00:00:00,
2013-04-11 20:05:00,76.0,70.8,29.82,SSE,163,1.0,6.0,84,0.00,,,0.01,VWS V14.01,2013-04-12 00:05:00,
2013-04-11 20:10:00,75.9,70.7,29.81,SE,142,5.0,7.0,84,0.00,,,0.01,VWS V14.01,2013-04-12 00:10:00,
2013-04-11 20:15:00,75.8,70.6,29.81,SSE,159,1.0,5.0,84,0.00,,,0.01,VWS V14.01,2013-04-12 00:15:00,
2013-04-11 20:20:00,75.8,70.6,29.81,SSE,153,2.0,7.0,84,0.00,,,0.01,VWS V14.01,2013-04-12 00:20:00,
2013-04-11 20:25:00,75.7,70.5,29.81,SSE,153,2.0,4.0,84,0.00,,,0.01,VWS V14.01,2013-04-12 00:25:00,
2013-04-11 20:30:00,75.6,70.8,29.81,SSE,153,1.0,4.0,85,0.00,,,0.01,VWS V14.01,2013-04-12 00:30:00,
2013-04-11 20:35:00,75.4,70.6,29.81,SSE,153,0.0,0.0,85,0.00,,,0.01,VWS V14.01,2013-04-12 00:35:00,
2013-04-11 20:40:00,75.2,70.7,29.81,SSE,153,0.0,4.0,86,0.00,,,0.01,VWS V14.01,2013-04-12 00:40:00,
2013-04-11 20:45:00,75.0,70.5,29.81,SSE,153,4.0,5.0,86,0.00,,,0.01,VWS V14.01,2013-04-12 00:45:00,
2013-04-11 20:50:00,74.8,70.7,29.81,SSE,153,1.0,5.0,87,0.00,,,0.01,VWS V14.01,2013-04-12 00:50:00,
2013-04-11 20:55:00,74.6,70.5,29.81,SSE,153,2.0,2.0,87,0.00,,,0.01,VWS V14.01,2013-04-12 00:55:00,
2013-04-11 21:00:00,74.6,70.5,29.81,SSE,153,5.0,6.0,87,0.00,,,0.01,VWS V14.01,2013-04-12 01:00:00,
2013-04-11 21:05:00,74.6,70.5,29.81,SSE,163,4.0,5.0,87,0.00,,,0.01,VWS V14.01,2013-04-12 01:05:00,
2013-04-11 21:10:00,74.8,70.7,29.81,SSE,163,4.0,5.0,87,0.00,,,0.01,VWS V14.01,2013-04-12 01:10:00,
2013-04-11 21:15:00,74.9,70.8,29.81,SSE,162,5.0,8.0,87,0.00,,,0.01,VWS V14.01,2013-04-12 01:15:00,
2013-04-11 21:20:00,75.1,71.0,29.81,South,173,6.0,8.0,87,0.00,,,0.01,VWS V14.01,2013-04-12 01:20:00,
2013-04-11 21:25:00,75.3,70.8,29.81,SE,145,6.0,7.0,86,0.00,,,0.01,VWS V14.01,2013-04-12 01:25:00,
2013-04-11 21:30:00,75.4,70.9,29.81,SSE,152,2.0,7.0,86,0.00,,,0.01,VWS V14.01,2013-04-12 01:30:00,
2013-04-11 21:35:00,75.4,70.9,29.81,SSE,156,5.0,6.0,86,0.00,,,0.01,VWS V14.01,2013-04-12 01:35:00,
2013-04-11 21:40:00,75.4,70.9,29.81,SSE,151,8.0,8.0,86,0.00,,,0.01,VWS V14.01,2013-04-12 01:40:00,
2013-04-11 21:45:00,75.4,70.9,29.81,SSE,164,7.0,7.0,86,0.00,,,0.01,VWS V14.01,2013-04-12 01:45:00,
2013-04-11 21:50:00,75.5,71.0,29.81,SSE,150,4.0,8.0,86,0.00,,,0.01,VWS V14.01,2013-04-12 01:50:00,
2013-04-11 21:55:00,75.6,71.1,29.81,South,169,7.0,7.0,86,0.00,,,0.01,VWS V14.01,2013-04-12 01:55:00,
2013-04-11 22:00:00,75.7,71.2,29.81,SE,142,8.0,10.0,86,0.00,,,0.01,VWS V14.01,2013-04-12 02:00:00,
2013-04-11 22:05:00,75.7,71.2,29.80,SE,139,6.0,7.0,86,0.00,,,0.01,VWS V14.01,2013-04-12 02:05:00,
2013-04-11 22:10:00,75.7,71.2,29.80,SSE,150,5.0,10.0,86,0.00,,,0.01,VWS V14.01,2013-04-12 02:10:00,
2013-04-11 22:15:00,75.6,71.1,29.81,SSE,161,5.0,8.0,86,0.00,,,0.01,VWS V14.01,2013-04-12 02:15:00,
2013-04-11 22:20:00,75.5,71.0,29.81,SSE,167,6.0,8.0,86,0.00,,,0.01,VWS V14.01,2013-04-12 02:20:00,
2013-04-11 22:25:00,75.3,70.8,29.81,South,185,4.0,7.0,86,0.00,,,0.01,VWS V14.01,2013-04-12 02:25:00,
2013-04-11 22:30:00,75.2,71.1,29.81,SSE,160,4.0,10.0,87,0.00,,,0.01,VWS V14.01,2013-04-12 02:30:00,
2013-04-11 22:35:00,75.1,71.0,29.81,SSE,155,4.0,6.0,87,0.00,,,0.01,VWS V14.01,2013-04-12 02:35:00,
2013-04-11 22:40:00,75.0,70.9,29.81,SSE,167,5.0,8.0,87,0.00,,,0.01,VWS V14.01,2013-04-12 02:40:00,
2013-04-11 22:45:00,74.8,70.7,29.82,South,181,3.0,4.0,87,0.00,,,0.01,VWS V14.01,2013-04-12 02:45:00,
2013-04-11 22:50:00,74.7,70.6,29.83,South,178,2.0,5.0,87,0.00,,,0.01,VWS V14.01,2013-04-12 02:50:00,
2013-04-11 22:55:00,74.6,70.5,29.83,SSW,195,2.0,5.0,87,0.00,,,0.01,VWS V14.01,2013-04-12 02:55:00,
2013-04-11 23:00:00,74.6,70.5,29.84,South,175,0.0,6.0,87,0.00,,,0.01,VWS V14.01,2013-04-12 03:00:00,
2013-04-11 23:05:00,74.6,70.5,29.85,South,175,4.0,5.0,87,0.00,,,0.01,VWS V14.01,2013-04-12 03:05:00,
2013-04-11 23:10:00,74.6,70.5,29.85,SSE,148,2.0,7.0,87,0.00,,,0.01,VWS V14.01,2013-04-12 03:10:00,
2013-04-11 23:15:00,74.6,70.5,29.85,South,181,3.0,4.0,87,0.00,,,0.01,VWS V14.01,2013-04-12 03:15:00,
2013-04-11 23:20:00,74.5,70.4,29.85,SSE,164,4.0,7.0,87,0.00,,,0.01,VWS V14.01,2013-04-12 03:20:00,
2013-04-11 23:25:00,74.4,70.3,29.85,SSE,165,5.0,6.0,87,0.00,,,0.01,VWS V14.01,2013-04-12 03:25:00,
2013-04-11 23:30:00,74.4,70.3,29.85,SSE,161,4.0,7.0,87,0.00,,,0.01,VWS V14.01,2013-04-12 03:30:00,
2013-04-11 23:35:00,74.4,70.3,29.85,South,169,6.0,6.0,87,0.00,,,0.01,VWS V14.01,2013-04-12 03:35:00,
2013-04-11 23:40:00,74.4,70.3,29.85,SSE,160,5.0,6.0,87,0.00,,,0.01,VWS V14.01,2013-04-12 03:40:00,
2013-04-11 23:45:00,74.3,70.2,29.85,South,184,4.0,4.0,87,0.00,,,0.01,VWS V14.01,2013-04-12 03:45:00,
2013-04-11 23:50:00,74.2,70.4,29.85,SSE,159,5.0,7.0,88,0.00,,,0.01,VWS V14.01,2013-04-12 03:50:00,
2013-04-11 23:55:00,74.2,70.4,29.85,SSE,161,4.0,5.0,88,0.00,,,0.01,VWS V14.01,2013-04-12 03:55:00,